RH
79 84 88 99 95 100 96 97 93 92 93 97 94 92 94 95 96 88 76 70 62 58 52 48 46 41 23 11 8 7 8 7 10 12 13 13 18 24
84 81 85 95 98 99 100 96 86 92 89 88 83 82 85 89 88 84 76 67 61 57 53 50 44 25 11 8 8 8 8 10 11 12 10 11 11 25
89 81 88 83 90 100 100 97 92 100 94 78 84 84 84 81 80 82 77 72 66 62 58 50 29 12 9 9 11 10 11 12 11 11 11 11 12 19
88 89 87 90 95 98 99 100 98 97 81 60 62 71 75 80 80 80 79 76 72 66 57 33 14 10 12 14 14 13 12 11 12 13 13 13 14 24
75 90 94 86 99 99 99 95 100 98 93 93 77 68 65 74 75 75 75 76 68 55 29 12 12 14 15 14 14 13 12 13 13 14 14 14 15 29
96 99 97 100 97 100 100 100 100 99 96 80 84 76 71 71 74 73 70 64 45 19 14 16 15 15 15 13 13 14 14 14 15 15 16 20 24 31
100 91 99 100 100 98 100 91 92 99 93 84 73 77 61 62 65 60 52 24 16 15 16 16 17 15 14 14 16 16 16 15 17 20 22 22 21 24
94 98 100 100 100 100 100 100 99 99 92 88 85 66 60 61 46 31 18 18 18 17 17 17 15 15 16 18 18 16 17 19 23 25 25 24 24 23
90 90 100 98 99 99 98 99 89 76 60 56 53 53 39 20 17 16 17 17 17 16 15 14 15 16 15 17 16 17 19 25 28 28 28 29 28 28
99 100 100 100 95 77 55 52 55 46 36 26 23 17 17 17 18 17 17 16 18 18 18 18 16 14 16 17 16 17 25 28 26 30 32 33 33 32
100 100 98 78 35 30 28 24 17 16 19 19 20 20 20 19 26 37 26 21 21 22 21 20 18 14 13 14 20 23 29 27 28 31 35 36 36 36
65 51 34 37 26 20 18 18 19 20 24 25 30 30 40 54 31 25 26 26 27 25 26 28 24 24 22 20 23 27 34 35 33 35 33 36 38 40
64 50 27 20 20 22 21 22 28 43 55 45 48 57 38 29 30 32 33 34 36 36 36 36 34 33 32 31 23 22 23 29 34 35 32 36 44 54
21 19 22 23 23 26 35 53 57 39 44 51 41 34 34 33 35 36 37 38 39 42 44 44 43 44 44 46 38 30 27 28 38 40 35 43 46 52
23 26 25 26 45 65 67 41 57 78 56 39 38 35 36 39 40 40 41 40 40 45 48 51 52 52 52 50 51 39 38 31 45 46 45 46 49 52
27 28 36 66 65 44 60 67 51 38 39 43 41 41 44 47 50 52 53 54 54 53 52 55 60 64 62 56 53 41 40 64 49 47 50 51 53 53
31 36 55 63 57 61 53 41 33 35 39 42 44 47 50 51 50 44 52 65 65 51 47 52 58 64 66 64 55 46 50 57 59 53 60 56 48 47
46 57 61 66 66 53 33 28 31 34 38 39 42 44 44 41 39 42 66 77 76 60 47 51 55 62 64 56 57 56 65 65 59 73 74 73 53 50
69 82 68 49 34 30 32 33 35 38 37 38 38 36 34 34 37 45 66 82 81 77 56 58 68 90 88 75 63 71 82 74 76 71 68 66 69 55
46 40 36 35 34 34 35 35 37 38 38 38 36 36 37 39 41 45 54 70 86 87 71 77 87 99 96 92 100 72 70 76 72 72 71 73 67 60
37 38 38 38 37 38 39 40 40 40 40 40 38 38 40 44 43 49 73 85 98 99 97 87 90 92 96 100 95 74 67 65 70 76 75 78 75 75
37 37 37 36 35 34 33 33 34 36 38 41 40 41 44 49 52 83 90 99 97 100 96 94 89 85 86 90 85 79 70 62 62 68 69 78 95 98
35 32 33 34 34 33 33 34 36 38 41 41 42 50 78 70 91 79 89 98 100 100 98 94 88 88 84 83 85 80 80 68 68 67 57 68 75 77
Wind_Speed
34 32 38 42 36 34 35 34 28 26 33 35 31 30 31 31 28 27 26 24 22 22 21 20 20 20 20 20 20 20 19 19 18 18 18 18 18 18
35 33 29 33 30 28 34 32 28 25 25 25 26 29 25 29 28 25 24 23 22 21 20 19 19 19 19 18 19 18 18 18 18 19 19 19 19 18
31 31 30 31 30 32 32 27 31 28 26 20 28 26 25 22 25 25 24 22 22 21 20 19 18 19 19 18 19 18 17 18 19 21 18 20 20 19
29 26 29 32 33 31 26 32 32 29 21 18 17 22 24 24 21 21 21 21 20 20 20 19 19 17 17 17 18 17 18 19 18 18 18 20 20 19
28 28 27 29 33 35 31 31 29 23 24 20 14 19 21 22 21 20 19 18 17 17 17 16 16 16 16 17 17 18 18 17 17 18 19 20 19 18
22 22 22 28 32 30 33 29 17 20 24 20 17 18 20 20 19 17 16 14 13 14 13 13 14 15 15 18 18 16 17 17 18 19 18 16 17 18
16 17 23 26 31 24 24 18 24 22 21 16 15 15 19 19 16 13 11 11 10 11 11 11 12 13 15 14 15 16 18 18 18 17 17 18 20 20
14 15 19 21 21 23 22 20 17 19 16 15 16 18 17 14 12 10 9 8 7 8 7 9 12 12 13 14 16 18 18 18 16 16 19 20 21 22
14 14 18 16 15 14 14 13 13 14 13 11 11 12 11 10 9 7 5 5 6 6 8 8 10 11 14 15 19 19 17 14 14 19 20 22 22 24
17 17 16 16 15 12 11 13 13 13 11 11 11 11 10 7 6 4 2 2 5 8 8 10 8 11 14 18 19 16 12 11 19 20 22 23 25 26
16 15 13 14 14 12 12 16 18 18 16 14 13 11 9 7 4 1 1 3 5 7 9 9 14 16 17 16 13 11 11 20 21 22 24 25 26 27
19 19 17 15 15 14 12 14 17 18 15 14 12 9 7 3 2 2 2 5 7 8 8 14 14 16 12 11 7 19 23 23 21 25 25 25 26 25
19 18 17 18 19 18 15 14 15 16 14 11 9 5 4 3 2 3 5 7 8 9 12 15 16 17 18 22 24 24 25 25 26 25 24 24 20 25
19 20 20 20 20 19 17 14 11 11 10 7 6 4 1 1 3 5 7 9 11 12 14 16 19 19 21 26 31 31 32 31 30 27 21 22 26 26
19 20 20 20 19 16 13 12 9 5 3 4 4 2 1 1 4 6 9 12 13 14 16 17 19 20 22 26 32 35 36 35 30 26 30 28 30 29
20 20 21 17 14 13 9 7 5 6 5 3 3 3 3 4 6 7 10 14 17 17 18 19 21 22 25 27 30 36 34 34 30 27 31 32 32 32
18 18 14 11 10 7 5 6 6 5 4 4 5 6 7 8 9 11 13 17 20 21 21 20 21 24 25 28 33 34 30 27 29 27 31 36 34 33
12 10 8 6 5 6 7 7 6 7 8 9 9 10 11 13 14 15 17 20 23 23 24 24 26 28 31 33 31 31 29 26 28 33 32 36 40 35
6 5 6 8 7 7 8 9 9 10 12 13 14 15 16 16 18 19 20 23 26 28 27 26 27 26 30 36 39 28 24 33 33 34 33 33 38 37
8 9 8 8 9 10 11 11 13 15 16 17 17 17 18 19 20 22 23 27 29 30 30 28 27 26 28 30 33 37 30 33 32 35 34 33 32 31
7 7 8 10 11 13 14 15 17 18 19 20 19 19 20 21 23 24 26 28 30 27 30 30 26 27 26 26 32 36 34 27 26 31 32 35 36 36
8 9 11 13 14 16 18 19 20 21 21 21 21 21 21 22 25 27 27 29 29 27 29 29 28 27 25 26 31 34 34 30 26 28 28 30 31 32
11 13 14 15 17 18 19 19 21 22 21 21 22 24 25 24 29 28 28 28 27 27 28 30 31 27 25 26 28 33 35 34 35 35 33 32 32 30
Wind_Direction
239 234 238 249 245 240 245 226 228 212 227 229 231 238 240 242 245 245 245 244 244 246 252 258 265 271 277 278 276 275 275 280 281 283 282 284 284 283
233 235 239 245 250 242 224 231 239 228 232 227 230 233 241 239 240 241 242 242 245 248 252 257 263 268 272 273 272 274 277 277 279 282 285 285 284 287
235 230 233 244 242 235 232 231 224 228 223 224 228 231 233 234 237 238 240 243 245 250 255 260 264 267 268 270 273 273 276 280 284 284 287 287 290 291
226 235 236 240 240 244 235 228 216 215 220 232 218 221 223 224 228 234 240 243 245 248 253 257 263 267 270 272 273 279 281 281 282 286 286 286 288 287
231 229 239 235 240 236 224 217 214 214 218 226 227 218 220 218 222 229 237 240 242 249 258 266 268 271 272 274 278 281 285 287 287 287 287 288 286 285
228 232 244 232 234 215 213 217 214 228 212 212 230 225 219 220 222 229 230 235 243 253 262 267 272 274 276 278 280 281 284 286 287 286 284 283 288 292
229 253 236 236 226 225 219 210 217 209 206 220 225 236 224 221 223 225 226 235 248 259 266 270 275 278 280 282 282 280 284 287 287 284 282 288 290 293
207 210 204 201 202 200 200 201 210 214 215 228 230 233 222 214 213 210 215 232 251 258 261 269 283 282 283 278 276 284 287 285 282 280 289 293 295 296
189 195 190 185 180 181 183 182 192 207 206 231 223 211 203 188 187 199 213 237 260 278 290 288 287 285 284 281 285 289 284 273 281 292 295 296 295 295
178 177 167 154 166 158 186 183 178 171 166 160 156 160 154 153 157 159 184 241 283 282 280 284 281 300 303 297 292 283 259 276 302 297 297 296 295 294
149 146 147 147 142 145 160 162 153 145 138 135 136 134 129 124 124 159 257 270 278 298 313 320 320 314 310 301 292 283 255 299 299 296 296 296 294 295
138 134 135 139 137 137 150 147 140 132 131 129 127 126 123 120 119 60 341 331 336 327 310 318 323 329 324 306 294 294 293 295 294 299 298 295 295 293
140 139 136 134 128 126 129 128 130 127 132 128 122 118 103 80 40 353 342 339 334 329 317 320 321 322 314 307 309 310 308 308 306 304 299 295 291 294
135 134 133 132 131 130 129 128 126 123 121 126 124 118 132 55 16 348 340 334 329 324 318 315 315 317 314 311 312 316 314 314 311 310 302 296 298 295
130 132 132 133 133 132 132 131 118 108 151 165 172 155 133 334 334 339 333 326 321 317 316 313 311 310 309 307 307 313 315 316 312 310 306 301 302 301
137 136 135 135 136 136 132 146 173 181 191 192 201 235 281 301 308 316 326 325 315 308 308 309 307 307 308 307 306 310 313 305 309 306 305 302 302 303
138 140 143 143 147 149 179 207 204 212 228 244 252 265 278 289 295 303 313 320 317 313 311 309 303 304 306 307 307 313 310 304 307 311 309 305 304 308
145 146 155 161 185 219 224 229 239 249 255 264 274 283 288 294 297 298 305 313 318 313 313 313 311 311 311 309 314 314 310 309 314 315 312 310 307 310
186 198 212 234 242 242 246 251 256 263 272 281 286 291 293 292 292 292 299 308 314 311 311 311 317 322 319 314 317 318 311 314 315 311 312 310 307 311
223 241 253 255 258 261 265 270 271 275 281 286 287 288 289 291 292 291 296 305 307 306 305 313 317 319 313 312 308 309 316 315 317 314 316 313 310 313
256 264 267 268 271 273 275 277 279 281 282 283 285 289 291 291 290 292 299 302 305 299 300 307 313 317 313 305 300 308 315 320 315 315 318 314 316 316
272 271 271 274 277 281 284 285 285 285 286 288 287 287 287 286 286 292 296 302 302 300 302 305 313 313 309 309 309 313 319 324 325 319 314 314 307 290
269 272 275 281 286 289 291 296 297 295 291 288 285 285 284 287 292 292 296 299 300 302 305 308 312 312 312 314 316 317 319 322 325 325 316 325 321 316